Cartersville, GA

9:05 AM EDT on September 26, 2017 (GMT -0400)
Cartersville

Weather History for KVPC - May, 2013

Change the Weather History Date:

Friday, May 24, 2013

  Actual Average Record
Temperature  
Mean Temperature 61 °F 70 °F  
Max Temperature 74 °F 82 °F 89 °F (2011)
Min Temperature 48 °F 58 °F 43 °F (2002)
Degree Days  
Heating Degree Days 2    
Cooling Degree Days 0 5  
Month to date cooling degree days 57 81  
Year to date cooling degree days 83 106  
Growing Degree Days 12 (Base 50)    
Moisture  
Dew Point 51 °F    
Average Humidity 63    
Maximum Humidity 93    
Minimum Humidity 33    
Precipitation  
Precipitation 0.00 in 0.13 in 1.00 in (1980)
Month to date precipitation 6.26 3.14  
Year to date precipitation 11.81 21.27  
Sea Level Pressure  
Sea Level Pressure 30.14 in    
Wind  
Wind Speed 6 mph (North)    
Max Wind Speed 17 mph    
Max Gust Speed 23 mph    
Visibility 10 miles    
Events      
T = Trace of Precipitation, MM = Missing Value Source: NWS Daily Summary

Daily Weather History Graph

Daily Weather History Graph

Search for Another Location

Airport or City:

Trip Planner

Search our weather history database for the weather conditions in past years. The results will help you decide how hot, cold, wet, or windy it might be!

Date:

Astronomy

May. 24, 2013 Rise Set
Actual Time 6:32 AM EDT 8:40 PM EDT
Civil Twilight 6:03 AM EDT 9:09 PM EDT
Nautical Twilight 5:29 AM EDT 9:43 PM EDT
Astronomical Twilight 4:51 AM EDT 10:21 PM EDT
Moon 8:23 PM EDT (5/24) 6:01 AM EDT (5/24)
Length of Visible Light 15h 05m
Length of Day
14h 08m
Full, 100% of the Moon is Illuminated
May 24
Full
May 25
Full
May 31
Last Quarter
Jun 8
New
Jun 16
First Quarter

Hourly Weather History & Observations

Time (EDT) Temp. Dew Point Humidity Pressure Visibility Wind Dir Wind Speed Gust Speed Precip Events Conditions
12:53 AM 66.0 °F 55.9 °F 70% 30.01 in 10.0 mi Variable 3.5 mph - N/A   Clear
1:53 AM 66.0 °F 55.9 °F 70% 30.01 in 10.0 mi North 4.6 mph - N/A   Clear
2:53 AM 63.0 °F 55.0 °F 75% 30.01 in 10.0 mi Calm Calm - N/A   Clear
3:53 AM 59.0 °F 55.9 °F 90% 30.04 in 10.0 mi Calm Calm - N/A   Clear
4:53 AM 59.0 °F 54.0 °F 83% 30.04 in 10.0 mi Calm Calm - N/A   Clear
5:53 AM 57.0 °F 54.0 °F 89% 30.06 in 10.0 mi Calm Calm - N/A   Clear
6:53 AM 55.9 °F 54.0 °F 93% 30.08 in 10.0 mi Calm Calm - N/A   Clear
7:53 AM 60.1 °F 55.9 °F 86% 30.10 in 10.0 mi Calm Calm - N/A   Clear
8:53 AM 64.9 °F 55.9 °F 73% 30.12 in 10.0 mi NNW 8.1 mph - N/A   Clear
9:18 AM 64.4 °F 55.4 °F 73% 30.17 in 10.0 mi NNW 5.8 mph - N/A   Scattered Clouds
9:53 AM 66.9 °F 55.0 °F 66% 30.15 in 10.0 mi North 11.5 mph 19.6 mph N/A   Scattered Clouds
10:53 AM 70.0 °F 54.0 °F 57% 30.17 in 10.0 mi North 12.7 mph 19.6 mph N/A   Mostly Cloudy
11:53 AM 69.1 °F 53.1 °F 57% 30.18 in 10.0 mi NNW 9.2 mph 17.3 mph N/A   Mostly Cloudy
12:53 PM 71.1 °F 48.9 °F 45% 30.18 in 10.0 mi NNW 9.2 mph 19.6 mph N/A   Clear
1:53 PM 73.0 °F 48.9 °F 42% 30.18 in 10.0 mi North 10.4 mph - N/A   Clear
2:53 PM 73.9 °F 46.0 °F 37% 30.18 in 10.0 mi North 11.5 mph 23.0 mph N/A   Clear
3:53 PM 73.0 °F 42.1 °F 33% 30.18 in 10.0 mi North 11.5 mph 23.0 mph N/A   Clear
4:53 PM 72.0 °F 43.0 °F 35% 30.19 in 10.0 mi North 13.8 mph 18.4 mph N/A   Clear
5:53 PM 72.0 °F 42.1 °F 34% 30.19 in 10.0 mi North 8.1 mph - N/A   Clear
6:53 PM 71.1 °F 42.1 °F 35% 30.19 in 10.0 mi North 12.7 mph 20.7 mph N/A   Clear
7:53 PM 68.0 °F 44.1 °F 42% 30.19 in 10.0 mi North 10.4 mph - N/A   Clear
8:53 PM 57.0 °F 50.0 °F 77% 30.20 in 10.0 mi Calm Calm - N/A   Clear
9:53 PM 60.1 °F 48.9 °F 67% 30.20 in 10.0 mi Calm Calm - N/A   Clear
10:53 PM 52.0 °F 48.0 °F 86% 30.22 in 10.0 mi Calm Calm - N/A   Clear
11:53 PM 51.1 °F 48.0 °F 89% 30.23 in 10.0 mi Calm Calm - N/A   Clear